TimeAKST,TemperatureF,Dew PointF,Humidity,Sea Level PressureIn,VisibilityMPH,Wind Direction,Wind SpeedMPH,Gust SpeedMPH,PrecipitationIn,Events,Conditions,WindDirDegrees,DateUTC
12:16 AM,33.8,32.0,93,29.76,10.0,Calm,Calm,-,N/A,,Overcast,0,2013-02-24 09:16:00
12:36 AM,33.8,30.2,87,29.76,5.0,Calm,Calm,-,N/A,,Overcast,0,2013-02-24 09:36:00
12:56 AM,33.8,30.2,87,29.75,9.0,East,4.6,-,N/A,,Overcast,90,2013-02-24 09:56:00
1:16 AM,33.8,30.2,87,29.76,10.0,Calm,Calm,-,N/A,,Overcast,0,2013-02-24 10:16:00
1:36 AM,33.8,32.0,93,29.76,10.0,East,5.8,-,N/A,,Overcast,90,2013-02-24 10:36:00
1:56 AM,33.8,30.2,87,29.75,10.0,East,5.8,-,N/A,,Scattered Clouds,80,2013-02-24 10:56:00
2:16 AM,32.0,30.2,93,29.75,10.0,East,6.9,-,N/A,,Mostly Cloudy,80,2013-02-24 11:16:00
2:36 AM,33.8,28.4,81,29.75,10.0,East,3.5,-,N/A,,Partly Cloudy,80,2013-02-24 11:36:00
2:56 AM,33.8,30.2,87,29.74,10.0,Calm,Calm,-,N/A,,Mostly Cloudy,0,2013-02-24 11:56:00
3:16 AM,33.8,30.2,87,29.74,10.0,East,8.1,-,N/A,,Mostly Cloudy,100,2013-02-24 12:16:00
3:36 AM,33.8,30.2,87,29.74,10.0,ESE,5.8,-,N/A,,Overcast,110,2013-02-24 12:36:00
3:56 AM,33.8,30.2,87,29.75,10.0,ESE,8.1,-,N/A,,Mostly Cloudy,110,2013-02-24 12:56:00
4:16 AM,33.8,32.0,93,29.74,10.0,ESE,5.8,-,N/A,,Overcast,110,2013-02-24 13:16:00
4:36 AM,35.6,32.0,87,29.75,10.0,SSE,4.6,-,N/A,,Overcast,160,2013-02-24 13:36:00
4:56 AM,33.8,30.2,87,29.75,10.0,SSE,3.5,-,N/A,,Overcast,160,2013-02-24 13:56:00
5:16 AM,33.8,30.2,87,29.75,4.0,Calm,Calm,-,0.01,,Overcast,0,2013-02-24 14:16:00
5:36 AM,33.8,30.2,87,29.75,10.0,ESE,8.1,-,0.02,,Overcast,120,2013-02-24 14:36:00
5:56 AM,33.8,30.2,87,29.76,10.0,ESE,6.9,-,0.02,,Overcast,120,2013-02-24 14:56:00
6:16 AM,33.8,30.2,87,29.76,10.0,ESE,6.9,-,N/A,,Overcast,110,2013-02-24 15:16:00
6:36 AM,33.8,30.2,87,29.76,10.0,ESE,5.8,-,N/A,,Overcast,120,2013-02-24 15:36:00
6:56 AM,33.8,30.2,87,29.77,10.0,ESE,6.9,-,N/A,,Overcast,110,2013-02-24 15:56:00
7:16 AM,33.8,30.2,87,29.77,10.0,East,9.2,-,N/A,,Mostly Cloudy,100,2013-02-24 16:16:00
7:36 AM,33.8,30.2,87,29.78,10.0,East,8.1,-,N/A,,Mostly Cloudy,100,2013-02-24 16:36:00
7:56 AM,33.8,30.2,87,29.79,10.0,ESE,6.9,-,N/A,,Overcast,110,2013-02-24 16:56:00
8:16 AM,33.8,30.2,87,29.80,10.0,ESE,8.1,-,N/A,,Overcast,120,2013-02-24 17:16:00
8:36 AM,33.8,30.2,87,29.80,10.0,SE,8.1,-,N/A,,Mostly Cloudy,130,2013-02-24 17:36:00
8:56 AM,33.8,30.2,87,29.81,10.0,SE,6.9,-,N/A,,Scattered Clouds,130,2013-02-24 17:56:00
9:16 AM,35.6,32.0,87,29.82,10.0,SE,5.8,-,N/A,,Mostly Cloudy,140,2013-02-24 18:16:00
9:36 AM,35.6,32.0,87,29.83,10.0,SE,4.6,-,N/A,,Partly Cloudy,140,2013-02-24 18:36:00
9:56 AM,37.4,32.0,81,29.84,10.0,SE,5.8,-,N/A,,Mostly Cloudy,140,2013-02-24 18:56:00
10:16 AM,37.4,32.0,81,29.84,10.0,SE,5.8,-,N/A,,Mostly Cloudy,130,2013-02-24 19:16:00
10:36 AM,37.4,32.0,81,29.84,10.0,SSE,4.6,-,N/A,,Partly Cloudy,150,2013-02-24 19:36:00
10:56 AM,37.4,33.8,87,29.85,10.0,SSE,6.9,-,N/A,,Partly Cloudy,150,2013-02-24 19:56:00
11:16 AM,37.4,33.8,87,29.85,10.0,SE,6.9,-,N/A,,Partly Cloudy,140,2013-02-24 20:16:00
11:36 AM,39.2,33.8,81,29.85,10.0,SE,6.9,-,N/A,,Clear,130,2013-02-24 20:36:00
11:56 AM,39.2,32.0,75,29.85,10.0,SSE,4.6,-,N/A,,Clear,150,2013-02-24 20:56:00
12:16 PM,39.2,33.8,81,29.86,10.0,SSE,3.5,-,N/A,,Clear,150,2013-02-24 21:16:00
12:36 PM,39.2,32.0,75,29.86,10.0,SSE,3.5,-,N/A,,Clear,150,2013-02-24 21:36:00
12:56 PM,39.2,30.2,70,29.86,10.0,SSE,3.5,-,N/A,,Clear,150,2013-02-24 21:56:00
1:16 PM,39.2,30.2,70,29.86,10.0,SSE,3.5,-,N/A,,Clear,150,2013-02-24 22:16:00
1:36 PM,39.2,30.2,70,29.86,10.0,Calm,Calm,-,N/A,,Clear,0,2013-02-24 22:36:00
1:56 PM,39.2,30.2,70,29.86,10.0,Calm,Calm,-,N/A,,Clear,0,2013-02-24 22:56:00
2:16 PM,39.2,30.2,70,29.87,10.0,Calm,Calm,-,N/A,,Clear,0,2013-02-24 23:16:00
2:36 PM,39.2,28.4,65,29.86,10.0,Calm,Calm,-,N/A,,Scattered Clouds,0,2013-02-24 23:36:00
2:56 PM,41.0,30.2,65,29.87,10.0,SSE,4.6,-,N/A,,Clear,160,2013-02-24 23:56:00
3:16 PM,39.2,28.4,65,29.87,10.0,SSE,4.6,-,N/A,,Clear,160,2013-02-25 00:16:00
3:36 PM,39.2,30.2,70,29.87,10.0,SSE,3.5,-,N/A,,Clear,160,2013-02-25 00:36:00
3:56 PM,39.2,30.2,70,29.87,10.0,SSE,3.5,-,N/A,,Clear,150,2013-02-25 00:56:00
4:16 PM,37.4,30.2,75,29.87,10.0,Calm,Calm,-,N/A,,Clear,0,2013-02-25 01:16:00
4:36 PM,35.6,30.2,81,29.87,10.0,East,5.8,-,N/A,,Clear,100,2013-02-25 01:36:00
4:56 PM,33.8,28.4,81,29.87,10.0,East,5.8,-,N/A,,Clear,100,2013-02-25 01:56:00
5:16 PM,33.8,28.4,81,29.87,10.0,East,8.1,-,N/A,,Clear,90,2013-02-25 02:16:00
5:36 PM,32.0,28.4,87,29.86,10.0,East,8.1,-,N/A,,Clear,80,2013-02-25 02:36:00
5:56 PM,32.0,28.4,87,29.87,10.0,East,6.9,-,N/A,,Partly Cloudy,80,2013-02-25 02:56:00
6:16 PM,32.0,28.4,87,29.87,10.0,East,5.8,-,N/A,,Clear,80,2013-02-25 03:16:00
6:36 PM,30.2,28.4,93,29.87,10.0,East,6.9,-,N/A,,Clear,80,2013-02-25 03:36:00
6:56 PM,30.2,28.4,93,29.87,10.0,East,8.1,-,N/A,,Clear,80,2013-02-25 03:56:00
7:16 PM,30.2,28.4,93,29.87,10.0,East,9.2,-,N/A,,Clear,80,2013-02-25 04:16:00
7:36 PM,30.2,26.6,86,29.87,10.0,ENE,8.1,-,N/A,,Clear,70,2013-02-25 04:36:00
7:56 PM,30.2,26.6,86,29.87,10.0,East,8.1,-,N/A,,Clear,80,2013-02-25 04:56:00
8:16 PM,30.2,26.6,86,29.87,10.0,East,6.9,-,N/A,,Clear,80,2013-02-25 05:16:00
8:36 PM,30.2,26.6,86,29.87,10.0,East,4.6,-,N/A,,Clear,100,2013-02-25 05:36:00
8:56 PM,30.2,26.6,86,29.87,10.0,East,6.9,-,N/A,,Clear,80,2013-02-25 05:56:00
9:16 PM,30.2,26.6,86,29.87,10.0,ENE,4.6,-,N/A,,Clear,70,2013-02-25 06:16:00
9:36 PM,30.2,28.4,93,29.87,10.0,East,8.1,-,N/A,,Mostly Cloudy,80,2013-02-25 06:36:00
9:56 PM,30.2,28.4,93,29.88,10.0,East,8.1,-,N/A,,Mostly Cloudy,80,2013-02-25 06:56:00
10:16 PM,30.2,28.4,93,29.88,10.0,East,8.1,-,N/A,,Partly Cloudy,90,2013-02-25 07:16:00
10:36 PM,30.2,26.6,86,29.88,10.0,East,6.9,-,N/A,,Partly Cloudy,80,2013-02-25 07:36:00
10:56 PM,30.2,26.6,86,29.88,10.0,East,6.9,-,N/A,,Clear,80,2013-02-25 07:56:00
11:16 PM,30.2,26.6,86,29.88,10.0,East,5.8,-,N/A,,Mostly Cloudy,80,2013-02-25 08:16:00
11:36 PM,30.2,26.6,86,29.89,10.0,East,6.9,-,N/A,,Partly Cloudy,80,2013-02-25 08:36:00
11:56 PM,30.2,26.6,86,29.88,10.0,East,6.9,-,N/A,,Clear,80,2013-02-25 08:56:00